[[{"header":{"parameterUnit":"m.s-1","parameterCategory":1,"la1":30.2991,"la2":30.254,"lo1":-89.0895,"lo2":-89.0444,"dy":0.0017,"dx":0.0017,"nx":28,"ny":28,"refTime":"2025-04-09T09:00:00:Z","depth":0,"parameterNumber":2,"parameterNumberName":"U-component_of_WINDS"},"data":[0,0,0,0,0,0,0,0,0,0,0,0,0,0,0,0,0,0,0,0,0,0,0,0,0,0,0,0,0,0,0,0,0,0,0,0,0,0,0,0,0,0,0,0,0,0,0,0,0,0,0,0,0,0,0,0,0,0,2.4851,2.4851,0,2.4872,2.4872,2.4872,2.4797,2.4795,2.4792,2.479,2.4812,2.4814,2.4817,0,0,0,0,0,0,0,0,0,0,0,0,0,2.4743,2.4746,2.4851,2.4851,2.4851,2.4872,2.4872,2.4872,2.4797,2.4795,2.4792,2.4789,2.4811,2.4814,2.4817,0,0,0,0,0,0,0,0,0,0,0,0,0,2.478,2.4747,2.4851,2.4816,2.4814,2.4872,2.4872,2.4872,2.4798,2.4795,2.4791,2.4788,2.481,2.4814,2.4818,2.491,0,0,2.483,2.4832,0,0,0,0,0,0,0,0,2.4778,2.4784,2.4821,2.4819,2.4816,2.4828,2.4842,2.4885,2.4799,2.4804,2.479,2.4786,2.482,2.4823,2.4834,2.4911,2.4912,2.483,2.4833,2.4834,2.4835,0,0,0,0,0,0,0,2.4776,2.4783,2.4859,2.4822,2.4819,2.4799,2.4801,2.485,2.4831,2.4803,2.4798,2.4801,2.4818,2.4831,2.4834,2.4912,2.483,2.4834,2.4836,2.4838,2.5061,2.5065,0,0,0,0,0,0,2.4778,2.4781,2.4858,2.486,2.4788,2.4804,2.4805,2.4828,2.483,2.4827,2.4804,2.4798,2.4825,2.483,2.4835,2.4939,2.4834,2.4838,2.484,2.5058,2.5062,2.5066,0,0,0,0,0,0,2.4776,2.4785,2.4858,2.4819,2.4827,2.4809,2.4835,2.483,2.4842,2.4831,2.4827,2.4821,2.4823,2.4829,2.4891,2.4939,2.484,2.4843,2.5054,2.5059,2.5064,2.5152,0,0,0,0,0,0,2.4773,2.4785,2.4821,2.482,2.4829,2.4914,2.4838,2.4833,2.485,2.4841,2.4845,2.4843,2.4821,2.4885,2.4895,2.4943,2.4847,2.5049,2.5056,2.5062,2.5145,2.516,2.5173,0,0,0,0,0,2.4769,2.4846,2.4823,2.4833,2.4873,2.4917,2.4922,2.4896,2.4854,2.4889,2.4881,2.4842,2.4933,2.4892,2.4902,2.4952,2.5046,2.5054,2.5062,2.5139,2.5157,2.5172,0,0,0,0,0,0,2.4853,2.4845,2.482,2.4898,2.4909,2.4905,2.4948,2.4917,2.4939,2.4931,2.4897,2.4898,2.4965,2.4965,2.492,2.504,2.4982,2.4993,2.5037,2.5054,2.5068,2.5065,2.485,0,0,0,0,0,2.4881,2.4917,2.4908,2.4978,2.4985,2.4966,2.4984,2.4962,2.4972,2.4976,2.4973,2.4983,2.5013,2.5034,2.5062,2.5145,2.5143,2.5185,2.5198,2.521,2.5218,2.5259,2.5276,2.5092,2.5092,2.5092,0,0,2.4938,2.4938,2.4964,2.4995,2.5001,2.5038,2.497,2.5014,2.5041,2.4983,2.504,2.5038,2.5047,2.5119,2.5151,2.5121,2.5269,2.522,2.5229,2.5232,2.5269,2.5286,2.5302,2.5097,2.5097,2.5096,0,0,2.506,2.5066,2.5123,2.5129,2.5138,2.5125,2.5138,2.5138,2.5134,2.5191,2.5147,2.5179,2.5233,2.524,2.5251,2.5374,2.5339,2.5385,2.5456,2.5496,2.5511,2.5523,2.5564,2.5579,2.5394,2.5394,2.5394,0,2.513,2.5185,2.5156,2.5201,2.5215,2.5164,2.522,2.5228,2.5246,2.5256,2.5224,2.5288,2.5291,2.5362,2.5392,2.5404,2.5416,2.5383,2.5511,2.5523,2.5535,2.5573,2.5589,2.5399,2.5399,2.5398,2.5398,0,2.5269,2.5308,2.5353,2.5369,2.5389,2.544,2.5416,2.544,2.5416,2.5405,2.5462,2.5464,2.5489,2.5505,2.5484,2.5573,2.5553,2.5517,2.5457,2.5558,2.5593,2.5608,2.5407,2.5405,2.5403,2.5402,0,0,2.5445,2.5443,2.5459,2.5465,2.547,2.5499,2.5547,2.5571,2.559,2.5604,2.5641,2.5687,2.5652,2.5664,2.5643,2.5678,2.5771,2.5636,2.5636,2.5658,2.5865,2.5891,2.5908,2.5749,2.5751,2.5754,2.5863,0,2.5562,2.5642,2.5616,2.5697,2.5731,2.5682,2.5723,2.573,2.5721,2.5748,2.5738,2.577,2.5723,2.5729,2.5762,2.5753,2.5812,2.5745,2.5781,2.5782,2.5777,2.5927,2.5955,2.6058,2.5877,2.588,2.5881,0,2.571,2.5727,2.5811,2.5808,2.5821,2.5858,2.5876,2.5903,2.591,2.59,2.5913,2.5884,2.5928,2.5871,2.5931,2.5886,2.5899,2.5897,2.59,2.59,2.5836,2.5928,2.6091,2.6105,2.5903,2.5902,2.59,0,2.5824,2.587,2.5925,2.5932,2.593,2.5957,2.5957,2.596,2.5975,2.5992,2.6001,2.6023,2.6034,2.6051,2.6028,2.5989,2.609,2.6031,2.6082,2.6082,2.6103,2.6101,2.6267,2.6117,2.6117,2.6117,2.6116,0,2.5957,2.6009,2.5976,2.601,2.6066,2.6035,2.6092,2.6087,2.609,2.612,2.6081,2.6111,2.6079,2.6106,2.6088,2.6138,2.6145,2.6137,2.6131,2.6139,2.6139,2.6145,2.6136,2.6121,2.612,2.6119,2.6118,0,2.6094,2.6074,2.613,2.6123,2.6122,2.6164,2.6158,2.6188,2.6176,2.6215,2.6222,2.6204,2.6232,2.6211,2.6241,2.6228,2.6294,2.6279,2.6291,2.6286,2.6336,2.633,2.6509,2.6529,2.6369,2.6371,2.6372,0,2.6178,2.6216,2.6213,2.623,2.6232,2.6262,2.6276,2.6247,2.6264,2.6273,2.6301,2.6327,2.6345,2.6393,2.6382,2.6403,2.6387,2.6448,2.639,2.6395,2.6384,2.638,2.6383,2.6459,2.6461,2.6462,2.6464,0,2.6327,2.6315,2.6337,2.6356,2.6374,2.6388,2.6398,2.6414,2.6385,2.6405,2.6434,2.6448,2.6476,2.6501,2.6518,2.6518,2.6485,2.6482,2.6494,2.6501,2.6505,2.65,2.632,2.6478,2.6476,2.6475,2.6474,2.6474,2.6438,2.6469,2.647,2.6495,2.65,2.651,2.6536,2.6527,2.655,2.657,2.6552,2.6585,2.6588,2.6607,2.6611,2.6636,2.6611,2.663,2.6634,2.6638,2.6643,2.6503,2.664,2.6639,2.6639,2.6639,2.6638,0,2.6583,2.658,2.6604,2.6619,2.6638,2.6606,2.6615,2.6633,2.6663,2.6668,2.6686,2.6718,2.6741,2.6731,2.6751,2.6773,2.6758,2.6779,2.6776,2.6776,2.6666,2.6652,2.679,2.679,2.679,2.679,2.679,2.679,2.666,2.6709,2.6696,2.6746,2.6744,2.6775,2.6783,2.6791,2.6795,2.6831,2.685,2.6843,2.6842,2.6861,2.6881,2.6877,2.6885,2.691,2.6901,2.6799,2.6784,2.6769,2.6756,2.6913,2.6913,2.7008,2.7009,2.7009]},{"header":{"parameterUnit":"m.s-1","parameterCategory":1,"la1":30.2991,"la2":30.254,"lo1":-89.0895,"lo2":-89.0444,"dy":0.0017,"dx":0.0017,"nx":28,"ny":28,"refTime":"2025-04-09T09:00:00:Z","depth":0,"parameterNumber":3,"parameterNumberName":"V-component_of_WINDS"},"data":[0,0,0,0,0,0,0,0,0,0,0,0,0,0,0,0,0,0,0,0,0,0,0,0,0,0,0,0,0,0,0,0,0,0,0,0,0,0,0,0,0,0,0,0,0,0,0,0,0,0,0,0,0,0,0,0,0,0,3.7934,3.7934,0,3.7908,3.7907,3.7907,3.7808,3.7806,3.7803,3.7801,3.7773,3.7775,3.7776,0,0,0,0,0,0,0,0,0,0,0,0,0,3.7897,3.7898,3.7935,3.7934,3.7934,3.7908,3.7907,3.7907,3.7808,3.7806,3.7803,3.78,3.7773,3.7774,3.7776,0,0,0,0,0,0,0,0,0,0,0,0,0,3.7896,3.7899,3.7935,3.7881,3.7876,3.7908,3.7907,3.7907,3.7809,3.7805,3.7802,3.7799,3.7772,3.7774,3.7776,3.7857,0,0,3.7783,3.7784,0,0,0,0,0,0,0,0,3.7897,3.7898,3.789,3.7885,3.788,3.7858,3.7884,3.789,3.781,3.7835,3.7801,3.7797,3.7804,3.7803,3.7806,3.7856,3.7854,3.7783,3.7784,3.7785,3.7785,0,0,0,0,0,0,0,3.7897,3.7898,3.7924,3.789,3.7883,3.7858,3.7854,3.7885,3.7839,3.7832,3.7825,3.7823,3.7801,3.7804,3.7804,3.7854,3.7783,3.7785,3.7786,3.7787,3.7964,3.7968,0,0,0,0,0,0,3.7905,3.7899,3.7925,3.7923,3.788,3.7861,3.7857,3.7868,3.7838,3.783,3.7826,3.7819,3.7802,3.7802,3.7803,3.7892,3.7785,3.7787,3.7788,3.7961,3.7965,3.7969,0,0,0,0,0,0,3.7904,3.7908,3.7926,3.7909,3.7909,3.7866,3.7879,3.7869,3.7872,3.7833,3.7825,3.7838,3.78,3.78,3.7843,3.789,3.7788,3.779,3.7957,3.7962,3.7967,3.8073,0,0,0,0,0,0,3.7903,3.7908,3.7939,3.7911,3.7911,3.7968,3.7882,3.7871,3.7876,3.7866,3.7842,3.7835,3.7797,3.7841,3.7845,3.7891,3.7791,3.7952,3.7959,3.7965,3.8065,3.8081,3.8095,0,0,0,0,0,3.7902,3.7971,3.7941,3.7945,3.7949,3.7971,3.7971,3.7926,3.7881,3.791,3.7885,3.7836,3.7885,3.7846,3.785,3.7897,3.7949,3.7957,3.7965,3.8058,3.8078,3.8095,0,0,0,0,0,0,3.8007,3.7966,3.7933,3.7994,3.7987,3.7954,3.799,3.7948,3.7953,3.7944,3.7887,3.7883,3.7933,3.792,3.7878,3.7971,3.7908,3.7917,3.7978,3.7996,3.8011,3.8012,3.7793,0,0,0,0,0,3.8037,3.8059,3.8022,3.808,3.8077,3.8035,3.8043,3.8009,3.7998,3.7994,3.7972,3.7964,3.7976,3.7986,3.7996,3.8063,3.8055,3.8097,3.8112,3.8125,3.8132,3.8163,3.8181,3.7995,3.7994,3.7994,0,0,3.81,3.808,3.8097,3.81,3.809,3.8112,3.8033,3.8061,3.8076,3.7999,3.8037,3.802,3.8007,3.8062,3.8085,3.8052,3.8182,3.8135,3.8145,3.8146,3.8173,3.8191,3.8206,3.8,3.7999,3.7998,0,0,3.8224,3.8213,3.8258,3.8249,3.8234,3.8205,3.8216,3.8189,3.8175,3.8212,3.8153,3.8171,3.8196,3.8187,3.8186,3.8305,3.8259,3.831,3.8387,3.8418,3.8432,3.8445,3.8484,3.8499,3.8318,3.8319,3.8319,0,3.8303,3.8335,3.8286,3.8317,3.8318,3.8249,3.8292,3.8286,3.8276,3.8278,3.8242,3.8269,3.8255,3.8305,3.8333,3.8336,3.8345,3.8311,3.8434,3.8447,3.8458,3.8494,3.8509,3.8325,3.8324,3.8323,3.8323,0,3.8431,3.8454,3.8492,3.8482,3.8489,3.8526,3.8481,3.8493,3.8458,3.8433,3.847,3.8451,3.8454,3.8464,3.8431,3.8509,3.8488,3.8445,3.8379,3.8482,3.8515,3.8529,3.8333,3.8331,3.8329,3.8328,0,0,3.8621,3.8582,3.8596,3.8589,3.8567,3.8584,3.8617,3.862,3.8629,3.8625,3.8649,3.867,3.8628,3.8627,3.8592,3.862,3.8711,3.8572,3.857,3.8595,3.8791,3.8822,3.884,3.8681,3.8684,3.8686,3.8791,0,3.8736,3.879,3.8746,3.8808,3.8826,3.876,3.8788,3.8777,3.8753,3.8765,3.8739,3.8753,3.8699,3.8697,3.8722,3.8695,3.8749,3.8687,3.8701,3.8702,3.8704,3.8857,3.8891,3.8992,3.8804,3.8806,3.8808,0,3.8878,3.8878,3.8941,3.8912,3.8918,3.8944,3.8941,3.8954,3.8939,3.892,3.8918,3.8875,3.8903,3.8841,3.8879,3.8837,3.884,3.8828,3.8831,3.8828,3.8759,3.8856,3.9023,3.9037,3.8829,3.8827,3.8826,0,3.9005,3.9021,3.906,3.9057,3.9025,3.9044,3.9032,3.9013,3.9017,3.9015,3.9015,3.9017,3.9018,3.9019,3.8976,3.8936,3.9018,3.8953,3.9001,3.9002,3.9019,3.9018,3.9186,3.9026,3.9026,3.9026,3.9026,0,3.9137,3.9178,3.9116,3.914,3.9182,3.9131,3.9174,3.9155,3.9139,3.9156,3.91,3.9117,3.9061,3.9073,3.904,3.9073,3.9075,3.9059,3.9049,3.9062,3.9064,3.9061,3.9052,3.903,3.9029,3.9028,3.9028,0,3.9286,3.9247,3.9284,3.925,3.9242,3.9274,3.9244,3.9264,3.9237,3.9259,3.9262,3.9218,3.9228,3.9187,3.919,3.9168,3.9217,3.9197,3.9222,3.9215,3.9263,3.9258,3.9433,3.9452,3.9284,3.9285,3.9287,0,3.9371,3.94,3.9369,3.9376,3.9366,3.9379,3.9382,3.9332,3.9337,3.9321,3.9342,3.9347,3.9348,3.9367,3.9335,3.9337,3.9314,3.9376,3.9314,3.9325,3.9311,3.9309,3.931,3.9388,3.939,3.9392,3.9393,0,3.9525,3.9504,3.951,3.9508,3.9513,3.951,3.9503,3.9512,3.9458,3.9466,3.9475,3.9476,3.9478,3.9483,3.9478,3.9463,3.9418,3.9413,3.9423,3.9435,3.9447,3.9438,3.9253,3.9408,3.9407,3.9406,3.9405,3.9404,3.9642,3.9664,3.9644,3.9651,3.9641,3.9635,3.965,3.9624,3.9631,3.9628,3.9599,3.9613,3.9594,3.9582,3.9572,3.9582,3.9553,3.9569,3.9572,3.9576,3.9583,3.9448,3.9581,3.9581,3.958,3.958,3.9579,0,3.979,3.9774,3.9782,3.9772,3.9778,3.9736,3.9725,3.9732,3.9745,3.9732,3.9734,3.9743,3.9747,3.9715,3.9714,3.9728,3.9707,3.9729,3.9726,3.9723,3.9611,3.96,3.9746,3.9746,3.9746,3.9746,3.9746,3.9746,3.9868,3.9901,3.9877,3.9903,3.9886,3.9899,3.9896,3.9889,3.9878,3.989,3.9893,3.9872,3.9851,3.9848,3.9849,3.9839,3.984,3.9869,3.9852,3.9748,3.9731,3.9716,3.9705,3.987,3.9871,3.9963,3.9964,3.9964]}]]